Weather History for Erzincan, Turkey

Change the Weather History Date:

Thursday, May 23, 2013

  Actual Average Record
Temperature  
Mean Temperature 63 °F -  
Max Temperature 82 °F 78 °F - ()
Min Temperature 44 °F 52 °F - ()
Degree Days  
Heating Degree Days 2    
Growing Degree Days 13 (Base 50)    
Moisture  
Dew Point 41 °F    
Average Humidity 42    
Maximum Humidity 87    
Minimum Humidity 10    
Precipitation  
Precipitation 0.00 in 0.05 in - ()
Sea Level Pressure  
Sea Level Pressure 30.06 in    
Wind  
Wind Speed 2 mph ()    
Max Wind Speed 10 mph    
Max Gust Speed -    
Visibility 6.5 miles    
Events      
T = Trace of Precipitation, MM = Missing Value Source: Averaged Metar Reports

Daily Weather History Graph

Daily Weather History Graph

Search for Another Location

Airport:

Trip Planner

Search our weather history database for the weather conditions in past years. The results will help you decide how hot, cold, wet, or windy it might be!

Date:

Astronomy

May. 23, 2013 Rise Set
Actual Time 5:01 AM EEST 7:36 PM EEST
Civil Twilight 4:29 AM EEST 8:07 PM EEST
Nautical Twilight 3:51 AM EEST 8:46 PM EEST
Astronomical Twilight 3:07 AM EEST 9:30 PM EEST
Moon 5:44 PM EEST (5/23) 3:30 AM EEST (5/23)
Length of Visible Light 15h 38m
Length of Day
14h 35m
Waxing Gibbous, 95% of the Moon is Illuminated
May 23
Waxing Gibbous
May 25
Full
May 31
Last Quarter
Jun 8
New
Jun 16
First Quarter

Hourly Weather History & Observations

Time (EEST) Temp. Dew Point Humidity Pressure Visibility Wind Dir Wind Speed Gust Speed Precip Events Conditions
12:50 AM 53.6 °F 42.8 °F 67% 30.04 in - East 2.3 mph - N/A   Clear
1:50 AM 51.8 °F 42.8 °F 71% 30.04 in - Calm Calm - N/A   Clear
3:00 AM 50 °F 42 °F 65%  in 6 mi Calm Calm - -  
3:50 AM 50.0 °F 41.0 °F 71% 30.04 in - Calm Calm - N/A   Clear
4:50 AM 50.0 °F 42.8 °F 76% 30.06 in - Calm Calm - N/A   Clear
5:50 AM 46.4 °F 42.8 °F 87% 30.09 in - Calm Calm - N/A   Clear
6:50 AM 55.4 °F 42.8 °F 63% 30.09 in - Calm Calm - N/A   Unknown
7:50 AM 60.8 °F 44.6 °F 55% 30.09 in - Calm Calm - N/A   Clear
8:50 AM 64.4 °F 42.8 °F 45% 30.09 in - ESE 4.6 mph - N/A   Clear
9:00 AM 65 °F 42 °F 31%  in 6 mi ESE 4.6 mph - -  
9:50 AM 69.8 °F 41.0 °F 35% 30.09 in - Variable 2.3 mph - N/A   Clear
10:50 AM 75.2 °F 42.8 °F 31% 30.09 in 6.2 mi Variable 2.3 mph - N/A   Partly Cloudy
11:50 AM 77.0 °F 41.0 °F 28% 30.06 in 6.2 mi West 2.3 mph - N/A   Partly Cloudy
12:50 PM 78.8 °F 39.2 °F 24% 30.06 in 6.2 mi Variable 3.5 mph - N/A   Partly Cloudy
1:50 PM 80.6 °F 35.6 °F 20% 30.06 in 6.2 mi West 9.2 mph - N/A   Partly Cloudy
2:50 PM 80.6 °F 35.6 °F 20% 30.04 in 6.2 mi West 8.1 mph - N/A   Partly Cloudy
3:00 PM 81 °F 35 °F 10%  in 6 mi West 8.1 mph - -   Scattered Clouds
3:50 PM 82.4 °F 35.6 °F 19% 30.04 in 6.2 mi West 10.4 mph - N/A   Partly Cloudy
4:50 PM 80.6 °F 35.6 °F 20% 30.04 in 6.2 mi WSW 8.1 mph - N/A   Scattered Clouds
5:50 PM 78.8 °F 41.0 °F 26% 30.04 in 6.2 mi West 9.2 mph - N/A   Scattered Clouds
6:50 PM 77.0 °F 39.2 °F 26% 30.04 in 6.2 mi WNW 3.5 mph - N/A   Scattered Clouds
7:50 PM 73.4 °F 42.8 °F 33% 30.04 in 6.2 mi NW 3.5 mph - N/A   Scattered Clouds
8:50 PM 71.6 °F 42.8 °F 35% 30.06 in 6.2 mi Variable 1.2 mph - N/A   Scattered Clouds
9:00 PM 71 °F 43 °F 26%  in 12 mi East 1.2 mph - -   Scattered Clouds
9:50 PM 68.0 °F 46.4 °F 46% 30.09 in 6.2 mi Calm Calm - N/A   Scattered Clouds
10:50 PM 66.2 °F 46.4 °F 49% 30.09 in 6.2 mi East 3.5 mph - N/A   Scattered Clouds
11:50 PM 60.8 °F 48.2 °F 63% 30.09 in 6.2 mi Calm Calm - N/A   Scattered Clouds